Queralbs





Hora UTC 05:40
Temperatura -2.3 ºC
Humedad 58.0 %
Presión 1017.4 hPa
Pluja 0.0 mm
Velocidad viento 0.0 km/h
Dirección viento NW
Radiación solar 0.0 W/m²

Datos diarios 2022-12-01



Hora UTC (invierno +1h; verano +2h)
Temperatura (ºC) Humedad (%) Presión (hPa) Velocidad viento (km/h) Precipitación (mm) Radiación solar (W/m²)
Hora UTC Aire Humedad Presión Vel. Dir. Vel. Max Dir. Intent. máx 5 min. Rad. Sol.
00:05 -1.4 63.0 1018.3 0.0 NW 0.0 0.0 0.0
00:10 -1.4 63.0 1018.4 0.0 NW 0.0 0.0 0.0
00:15 -1.4 63.0 1018.3 0.0 NW 0.0 0.0 0.0
00:20 -1.4 63.0 1018.3 0.0 NW 0.0 0.0 0.0
00:25 -1.4 63.0 1018.2 0.0 NW 0.0 0.0 0.0
00:30 -1.4 63.0 1018.2 0.0 NW 0.0 0.0 0.0
00:35 -1.3 63.0 1018.2 0.0 NW 1.6 0.0 0.0
00:40 -1.2 62.0 1018.2 0.0 NW 0.0 0.0 0.0
00:45 -1.3 62.0 1018.1 0.0 NW 0.0 0.0 0.0
00:50 -1.4 61.0 1018.2 3.2 NW 4.8 0.0 0.0
00:55 -1.6 61.0 1018.3 0.0 NW 4.8 0.0 0.0
01:00 -1.6 61.0 1018.4 0.0 NW 1.6 0.0 0.0
01:05 -1.7 61.0 1018.3 0.0 NW 0.0 0.0 0.0
01:10 -1.8 61.0 1018.2 0.0 NW 1.6 0.0 0.0
01:15 -1.8 61.0 1018.2 0.0 NW 1.6 0.0 0.0
01:20 -1.8 61.0 1018.3 0.0 NW 0.0 0.0 0.0
01:25 -1.8 61.0 1018.1 0.0 NW 0.0 0.0 0.0
01:30 -1.8 61.0 1018.2 0.0 NW 0.0 0.0 0.0
01:35 -1.8 61.0 1018.2 0.0 NW 0.0 0.0 0.0
01:40 -1.8 61.0 1018.2 0.0 NW 0.0 0.0 0.0
01:45 -1.8 61.0 1018.3 0.0 NW 0.0 0.0 0.0
01:50 -1.7 61.0 1018.4 1.6 NW 1.6 0.0 0.0
01:55 -1.6 61.0 1018.4 0.0 NW 4.8 0.0 0.0
02:00 -1.7 60.0 1018.3 0.0 NW 4.8 0.0 0.0
02:00 -1.7 61.0 1018.2 0.0 NW 3.2 0.0 0.0
02:10 -1.7 61.0 1018.3 0.0 NW 0.0 0.0 0.0
02:15 -1.7 61.0 1018.1 0.0 NW 0.0 0.0 0.0
02:20 -1.7 61.0 1018.3 0.0 NW 3.2 0.0 0.0
02:25 -1.7 60.0 1018.1 0.0 NW 3.2 0.0 0.0
02:30 -1.6 61.0 1018.2 0.0 NW 0.0 0.0 0.0
02:35 -1.6 60.0 1018.2 0.0 NW 0.0 0.0 0.0
02:40 -1.6 60.0 1018.2 0.0 NW 0.0 0.0 0.0
02:45 -1.7 60.0 1018.0 0.0 NW 0.0 0.0 0.0
02:50 -1.8 60.0 1018.0 0.0 NW 0.0 0.0 0.0
02:50 -1.8 60.0 1018.1 0.0 NW 0.0 0.0 0.0
02:55 -1.8 60.0 1018.1 0.0 NW 0.0 0.0 0.0
03:00 -1.9 60.0 1018.2 0.0 NW 0.0 0.0 0.0
03:05 -1.9 60.0 1018.1 0.0 NW 0.0 0.0 0.0
03:10 -1.9 60.0 1018.1 0.0 NW 0.0 0.0 0.0
03:15 -2.1 60.0 1018.1 0.0 NW 0.0 0.0 0.0
03:20 -2.0 60.0 1018.1 0.0 NW 0.0 0.0 0.0
03:25 -2.1 60.0 1017.9 0.0 NW 0.0 0.0 0.0
03:30 -2.1 60.0 1017.9 0.0 NW 0.0 0.0 0.0
03:35 -2.1 60.0 1017.9 0.0 NW 0.0 0.0 0.0
03:40 -2.0 60.0 1017.8 0.0 NW 0.0 0.0 0.0
03:45 -2.0 59.0 1017.8 0.0 NW 0.0 0.0 0.0
03:55 -2.1 60.0 1017.8 0.0 NW 0.0 0.0 0.0
04:00 -2.0 60.0 1017.7 0.0 NW 0.0 0.0 0.0
04:05 -1.9 60.0 1017.7 0.0 NW 0.0 0.0 0.0
04:10 -2.1 59.0 1017.7 0.0 NW 0.0 0.0 0.0
04:15 -2.0 59.0 1017.7 0.0 NW 0.0 0.0 0.0
04:20 -1.9 59.0 1017.7 0.0 NW 0.0 0.0 0.0
04:25 -1.9 59.0 1017.7 0.0 NW 0.0 0.0 0.0
04:30 -1.9 59.0 1017.6 0.0 NW 0.0 0.0 0.0
04:35 -1.9 59.0 1017.7 0.0 NW 0.0 0.0 0.0
04:40 -1.9 59.0 1017.6 0.0 NW 0.0 0.0 0.0
04:45 -1.8 59.0 1017.7 0.0 NW 0.0 0.0 0.0
04:50 -1.9 59.0 1017.6 0.0 NW 0.0 0.0 0.0
04:55 -1.8 59.0 1017.7 0.0 NW 0.0 0.0 0.0
05:00 -1.8 59.0 1017.7 0.0 NW 0.0 0.0 0.0
05:05 -1.8 59.0 1017.6 3.2 NW 4.8 0.0 0.0
05:10 -1.8 58.0 1017.5 0.0 NW 4.8 0.0 0.0
05:15 -1.9 58.0 1017.6 0.0 NW 0.0 0.0 0.0
05:20 -1.9 58.0 1017.5 0.0 NW 0.0 0.0 0.0
05:25 -2.1 59.0 1017.4 0.0 NW 1.6 0.0 0.0
05:30 -2.1 58.0 1017.5 0.0 NW 1.6 0.0 0.0
05:35 -2.2 58.0 1017.5 0.0 NW 0.0 0.0 0.0
05:40 -2.3 58.0 1017.4 0.0 NW 0.0 0.0 0.0
Máxima -0.8 63.0 1018.4 3.2 NW 4.8 0.0 0.0
Mínima -2.3 58.0 1017.4
Total 0.0